When you browse on this site, cookies collect data to enhance your experience and personalize the content and advertising you see.
Visit our Privacy Policy to learn more. By continuing to use the site, you agree to this use of cookies and data.
EN

Hourly Weather Goirle

Today, 28 September, Monday

Time Temperature Precipitation Wind Pressure Humidity
00:00 +13°C° 0 mm 1 mps 754 mmHg 79%
01:00 +13°C° 0.1 mm 1 mps 754 mmHg 82%
02:00 +13°C° 0.1 mm 1 mps 754 mmHg 84%
03:00 +13°C° 0.1 mm 2 mps 753 mmHg 87%
04:00 +13°C° 0.4 mm 2 mps 754 mmHg 89%
05:00 +12°C° 0.4 mm 3 mps 754 mmHg 91%
06:00 +12°C° 0.4 mm 3 mps 754 mmHg 93%
07:00 +12°C° 0.3 mm 4 mps 754 mmHg 93%
08:00 +12°C° 0.3 mm 4 mps 754 mmHg 93%
09:00 +12°C° 0.3 mm 4 mps 754 mmHg 93%
10:00 +12°C° 0 mm 4 mps 754 mmHg 93%
11:00 +12°C° 0 mm 3 mps 754 mmHg 92%
12:00 +13°C° 0 mm 3 mps 755 mmHg 91%
13:00 +12°C° 0.6 mm 3 mps 755 mmHg 92%
14:00 +12°C° 0.6 mm 3 mps 755 mmHg 94%
15:00 +12°C° 0.6 mm 3 mps 755 mmHg 95%
16:00 +12°C° 0.6 mm 3 mps 755 mmHg 95%
17:00 +13°C° 0.6 mm 2 mps 755 mmHg 95%
18:00 +13°C° 0.6 mm 2 mps 756 mmHg 96%
19:00 +13°C° 0.3 mm 2 mps 756 mmHg 96%
20:00 +13°C° 0.3 mm 2 mps 756 mmHg 96%
21:00 +13°C° 0.3 mm 1 mps 757 mmHg 96%
22:00 +14°C° 0.1 mm 2 mps 757 mmHg 96%
23:00 +14°C° 0.1 mm 2 mps 757 mmHg 96%

Tomorrow, 29 September, Tuesday

Time Temperature Precipitation Wind Pressure Humidity
00:00 +14°C° 0.1 mm 2 mps 757 mmHg 96%
01:00 +14°C° 0.3 mm 2 mps 757 mmHg 96%
02:00 +13°C° 0.3 mm 3 mps 757 mmHg 95%
03:00 +13°C° 0.3 mm 3 mps 757 mmHg 95%
04:00 +13°C° 0.4 mm 3 mps 758 mmHg 94%
05:00 +13°C° 0.4 mm 3 mps 758 mmHg 93%
06:00 +13°C° 0.4 mm 3 mps 758 mmHg 92%
07:00 +14°C° 0 mm 3 mps 758 mmHg 88%
08:00 +14°C° 0 mm 3 mps 759 mmHg 84%
09:00 +16°C° 0 mm 3 mps 759 mmHg 80%
10:00 +17°C° 0 mm 3 mps 759 mmHg 76%
11:00 +18°C° 0 mm 3 mps 759 mmHg 72%
12:00 +19°C° 0 mm 3 mps 759 mmHg 67%
13:00 +19°C° 0 mm 3 mps 759 mmHg 68%
14:00 +19°C° 0 mm 3 mps 759 mmHg 69%
15:00 +19°C° 0 mm 2 mps 759 mmHg 70%
16:00 +18°C° 0 mm 2 mps 759 mmHg 74%
17:00 +18°C° 0 mm 1 mps 759 mmHg 79%
18:00 +15°C° 0 mm 0 mps 759 mmHg 84%
19:00 +15°C° 0.1 mm 1 mps 760 mmHg 86%
20:00 +15°C° 0.1 mm 2 mps 760 mmHg 88%
21:00 +15°C° 0.1 mm 2 mps 760 mmHg 90%
22:00 +15°C° 0 mm 2 mps 760 mmHg 92%
23:00 +13°C° 0 mm 3 mps 759 mmHg 94%

Day after tomorrow, 30 September, Wednesday

Time Temperature Precipitation Wind Pressure Humidity
00:00 +13°C° 0 mm 3 mps 759 mmHg 97%
01:00 +13°C° 0 mm 3 mps 759 mmHg 97%
02:00 +12°C° 0 mm 3 mps 759 mmHg 96%
03:00 +12°C° 0 mm 3 mps 759 mmHg 96%
04:00 +12°C° 0 mm 3 mps 758 mmHg 95%
05:00 +12°C° 0 mm 3 mps 758 mmHg 95%
06:00 +12°C° 0 mm 3 mps 758 mmHg 94%
07:00 +13°C° 0 mm 3 mps 758 mmHg 88%
08:00 +14°C° 0 mm 3 mps 758 mmHg 83%
09:00 +17°C° 0 mm 3 mps 758 mmHg 77%
10:00 +18°C° 0 mm 3 mps 758 mmHg 74%
11:00 +19°C° 0 mm 3 mps 758 mmHg 71%
12:00 +20°C° 0 mm 3 mps 757 mmHg 68%
13:00 +20°C° 0.1 mm 3 mps 757 mmHg 69%
14:00 +20°C° 0.1 mm 3 mps 757 mmHg 70%
15:00 +20°C° 0.1 mm 3 mps 756 mmHg 72%
16:00 +19°C° 0.3 mm 3 mps 756 mmHg 77%
17:00 +17°C° 0.3 mm 3 mps 756 mmHg 83%
18:00 +16°C° 0.3 mm 3 mps 756 mmHg 88%
19:00 +16°C° 0 mm 3 mps 755 mmHg 88%
20:00 +16°C° 0 mm 3 mps 755 mmHg 88%
21:00 +16°C° 0 mm 3 mps 754 mmHg 87%
22:00 +15°C° 0 mm 4 mps 754 mmHg 87%
23:00 +15°C° 0 mm 4 mps 753 mmHg 87%

1 October, Thursday

Time Temperature Precipitation Wind Pressure Humidity
00:00 +15°C° 0 mm 4 mps 753 mmHg 87%
01:00 +15°C° 0.2 mm 5 mps 752 mmHg 87%
02:00 +14°C° 0.2 mm 5 mps 751 mmHg 87%
03:00 +14°C° 0.2 mm 5 mps 751 mmHg 87%
04:00 +14°C° 0.3 mm 5 mps 750 mmHg 87%
05:00 +14°C° 0.3 mm 4 mps 750 mmHg 88%
06:00 +13°C° 0.3 mm 4 mps 749 mmHg 89%
07:00 +14°C° 0.3 mm 4 mps 749 mmHg 88%
08:00 +14°C° 0.3 mm 4 mps 748 mmHg 88%
09:00 +15°C° 0.3 mm 5 mps 748 mmHg 87%
10:00 +14°C° 0.9 mm 5 mps 748 mmHg 88%
11:00 +14°C° 0.9 mm 5 mps 748 mmHg 89%
12:00 +13°C° 0.9 mm 5 mps 748 mmHg 90%
13:00 +14°C° 0.4 mm 4 mps 748 mmHg 89%
14:00 +14°C° 0.4 mm 4 mps 748 mmHg 87%
15:00 +14°C° 0.4 mm 3 mps 747 mmHg 85%
16:00 +13°C° 0.1 mm 3 mps 747 mmHg 87%
17:00 +12°C° 0.1 mm 3 mps 747 mmHg 89%
18:00 +13°C° 0.1 mm 2 mps 747 mmHg 90%
19:00 +12°C° 0 mm 2 mps 747 mmHg 91%
20:00 +12°C° 0 mm 2 mps 747 mmHg 92%
21:00 +12°C° 0 mm 2 mps 747 mmHg 92%
22:00 +12°C° 0.4 mm 2 mps 746 mmHg 93%
23:00 +12°C° 0.4 mm 2 mps 746 mmHg 94%

2 October, Friday

Time Temperature Precipitation Wind Pressure Humidity
00:00 +12°C° 0.4 mm 2 mps 746 mmHg 95%
01:00 +10°C° 0.4 mm 3 mps 745 mmHg 93%
02:00 +10°C° 0.4 mm 4 mps 745 mmHg 91%
03:00 +8°C° 0.4 mm 5 mps 744 mmHg 90%
04:00 +8°C° 0 mm 5 mps 744 mmHg 90%
05:00 +8°C° 0 mm 5 mps 744 mmHg 91%
06:00 +7°C° 0 mm 5 mps 743 mmHg 91%
07:00 +8°C° 0 mm 5 mps 743 mmHg 88%
08:00 +9°C° 0 mm 5 mps 743 mmHg 85%
09:00 +10°C° 0 mm 5 mps 742 mmHg 81%
10:00 +11°C° 0.3 mm 6 mps 742 mmHg 81%
11:00 +11°C° 0.3 mm 6 mps 741 mmHg 80%
12:00 +12°C° 0.3 mm 7 mps 740 mmHg 80%
13:00 +11°C° 1.8 mm 6 mps 740 mmHg 84%
14:00 +11°C° 1.8 mm 6 mps 739 mmHg 87%
15:00 +10°C° 1.8 mm 5 mps 739 mmHg 91%
16:00 +9°C° 0.2 mm 5 mps 739 mmHg 90%
17:00 +8°C° 0.2 mm 4 mps 739 mmHg 89%
18:00 +8°C° 0.2 mm 4 mps 740 mmHg 88%
19:00 +7°C° 0 mm 4 mps 740 mmHg 89%
20:00 +8°C° 0 mm 3 mps 740 mmHg 89%
21:00 +8°C° 0 mm 3 mps 740 mmHg 89%
22:00 +8°C° 0.1 mm 4 mps 739 mmHg 89%
23:00 +8°C° 0.1 mm 4 mps 739 mmHg 89%

3 October, Saturday

Time Temperature Precipitation Wind Pressure Humidity
00:00 +8°C° 0.1 mm 5 mps 738 mmHg 90%
01:00 +9°C° 1.7 mm 6 mps 737 mmHg 91%
02:00 +10°C° 1.7 mm 7 mps 735 mmHg 92%
03:00 +11°C° 1.7 mm 9 mps 734 mmHg 94%
04:00 +11°C° 1.4 mm 9 mps 733 mmHg 91%
05:00 +12°C° 1.4 mm 8 mps 733 mmHg 88%
06:00 +12°C° 1.4 mm 8 mps 732 mmHg 85%
07:00 +13°C° 0.1 mm 8 mps 732 mmHg 84%
08:00 +13°C° 0.1 mm 8 mps 732 mmHg 83%
09:00 +15°C° 0.1 mm 8 mps 731 mmHg 81%
10:00 +14°C° 0 mm 7 mps 732 mmHg 79%
11:00 +12°C° 0 mm 7 mps 733 mmHg 77%
12:00 +12°C° 0 mm 7 mps 734 mmHg 75%
13:00 +13°C° 0.1 mm 6 mps 735 mmHg 74%
14:00 +12°C° 0.1 mm 5 mps 736 mmHg 73%
15:00 +12°C° 0.1 mm 4 mps 737 mmHg 73%
16:00 +11°C° 0 mm 4 mps 737 mmHg 75%
17:00 +11°C° 0 mm 4 mps 737 mmHg 76%
18:00 +10°C° 0 mm 3 mps 738 mmHg 78%
19:00 +10°C° 0 mm 3 mps 738 mmHg 79%
20:00 +10°C° 0 mm 3 mps 739 mmHg 79%
21:00 +9°C° 0 mm 3 mps 739 mmHg 80%
22:00 +9°C° 0 mm 3 mps 739 mmHg 81%
23:00 +9°C° 0 mm 3 mps 739 mmHg 82%
Show more